Meeker, CO

4:43 PM MDT on March 22, 2017 (GMT -0600)
Meeker

Weather History for KEEO - July, 2013

Change the Weather History Date:

Sunday, July 7, 2013

  Actual Average Record
Temperature  
Mean Temperature 67 °F 66 °F  
Max Temperature 83 °F 85 °F 95 °F (2002)
Min Temperature 50 °F 47 °F 42 °F (2004)
Degree Days  
Heating Degree Days 0 1  
Month to date heating degree days 0 9  
Since 1 June heating degree days 76 153  
Since 1 July heating degree days 0 9  
Cooling Degree Days 2 2  
Month to date cooling degree days 30 12  
Year to date cooling degree days 67 30  
Since 1 June cooling degree days 67 29  
Growing Degree Days 16 (Base 50)    
Moisture  
Dew Point 48 °F    
Average Humidity 57    
Maximum Humidity 83    
Minimum Humidity 30    
Precipitation  
Precipitation 0.03 in 0.03 in 0.19 in (2012)
Month to date precipitation 0.49 0.23  
Year to date precipitation 6.93 7.62  
Sea Level Pressure  
Sea Level Pressure 29.98 in    
Wind  
Wind Speed 6 mph (SSE)    
Max Wind Speed 24 mph    
Max Gust Speed 33 mph    
Visibility 10 miles    
Events Rain , Thunderstorm    
T = Trace of Precipitation, MM = Missing Value Source: NWS Daily Summary

Daily Weather History Graph

Daily Weather History Graph

Search for Another Location

Airport or City:

Trip Planner

Search our weather history database for the weather conditions in past years. The results will help you decide how hot, cold, wet, or windy it might be!

Date:

Astronomy

Jul. 07, 2013 Rise Set
Actual Time 5:49 AM MDT 8:43 PM MDT
Civil Twilight 5:17 AM MDT 9:15 PM MDT
Nautical Twilight 4:36 AM MDT 9:56 PM MDT
Astronomical Twilight 3:49 AM MDT 10:43 PM MDT
Moon 5:28 AM MDT (7/7) 8:08 PM MDT (7/7)
Length of Visible Light 15h 57m
Length of Day
14h 53m
Waning Crescent, 0% of the Moon is Illuminated
Jul 7
Waning Crescent
Jul 8
New
Jul 15
First Quarter
Jul 22
Full
Jul 29
Last Quarter

Hourly Weather History & Observations

Time (MDT) Temp. Dew Point Humidity Pressure Visibility Wind Dir Wind Speed Gust Speed Precip Events Conditions
12:53 AM 57.0 °F 48.9 °F 74% 29.91 in 10.0 mi ENE 8.1 mph - N/A   Clear
1:53 AM 55.9 °F 48.9 °F 77% 29.91 in 10.0 mi ESE 5.8 mph - N/A   Clear
2:53 AM 55.9 °F 48.0 °F 75% 29.91 in 10.0 mi Calm Calm - N/A   Clear
3:53 AM 53.1 °F 48.0 °F 83% 29.93 in 10.0 mi NNE 4.6 mph - N/A   Clear
4:53 AM 51.1 °F 46.0 °F 83% 29.95 in 10.0 mi NE 3.5 mph - N/A   Clear
5:53 AM 53.1 °F 46.9 °F 80% 29.95 in 10.0 mi Variable 4.6 mph - N/A   Clear
6:53 AM 52.0 °F 46.0 °F 80% 29.98 in 10.0 mi Calm Calm - N/A   Clear
7:53 AM 59.0 °F 48.0 °F 67% 29.99 in 10.0 mi East 4.6 mph - N/A   Clear
8:53 AM 64.9 °F 46.0 °F 50% 29.98 in 10.0 mi Calm Calm - N/A   Clear
9:53 AM 69.1 °F 48.9 °F 49% 29.95 in 10.0 mi Calm Calm - N/A   Clear
10:53 AM 77.0 °F 46.9 °F 34% 29.92 in 10.0 mi Variable 3.5 mph - N/A   Clear
11:53 AM 81.0 °F 46.0 °F 29% 29.90 in 10.0 mi WSW 3.5 mph - N/A   Clear
12:53 PM 80.1 °F 46.0 °F 30% 29.91 in 10.0 mi SSE 3.5 mph - N/A   Scattered Clouds
1:53 PM 79.0 °F 48.0 °F 34% 29.89 in 10.0 mi SSE 9.2 mph - 0.00 in Rain , Thunderstorm Light Rain
2:15 PM 77.0 °F 39.2 °F 26% 30.15 in 10.0 mi SSE 11.5 mph 20.7 mph 0.00 in   Scattered Clouds
2:35 PM 75.2 °F 48.2 °F 38% 30.17 in 9.0 mi SW 9.2 mph - 0.00 in Rain , Thunderstorm Light Rain
2:50 PM 71.6 °F 51.8 °F 50% 30.16 in 9.0 mi East 6.9 mph - 0.02 in Rain Light Rain
2:53 PM 71.1 °F 53.1 °F 53% 29.92 in 10.0 mi East 10.4 mph - 0.02 in Rain Light Rain
3:48 PM 69.8 °F 55.4 °F 60% 30.16 in 10.0 mi WSW 4.6 mph - 0.01 in Thunderstorm Mostly Cloudy
3:53 PM 69.1 °F 55.9 °F 63% 29.95 in 10.0 mi SW 15.0 mph - 0.01 in Thunderstorm Mostly Cloudy
4:13 PM 73.4 °F 48.2 °F 41% 30.15 in 10.0 mi Variable 4.6 mph - 0.00 in Rain Light Rain
4:53 PM 72.0 °F 53.1 °F 51% 29.91 in 9.0 mi SE 10.4 mph - 0.00 in   Partly Cloudy
5:53 PM 77.0 °F 51.1 °F 40% 29.88 in 10.0 mi Calm Calm - N/A   Clear
6:53 PM 75.9 °F 48.9 °F 38% 29.90 in 10.0 mi WNW 26.5 mph 33.4 mph N/A   Mostly Cloudy
7:10 PM 75.2 °F 42.8 °F 31% 30.14 in 10.0 mi NW 17.3 mph 28.8 mph N/A   Scattered Clouds
7:53 PM 71.1 °F 46.9 °F 42% 29.91 in 10.0 mi SW 9.2 mph - N/A   Clear
8:53 PM 68.0 °F 46.9 °F 47% 29.94 in 10.0 mi SW 8.1 mph - N/A   Partly Cloudy
9:53 PM 62.1 °F 48.0 °F 60% 29.95 in 10.0 mi NE 5.8 mph - N/A   Clear
10:53 PM 60.1 °F 48.9 °F 67% 29.96 in 10.0 mi Calm Calm - N/A   Clear
11:53 PM 66.0 °F 46.9 °F 50% 29.97 in 10.0 mi WSW 4.6 mph 19.6 mph N/A   Mostly Cloudy